FW3754 Weather Reports


Display with metric or nautical units.
time (UTC)temp
F
wind
direction
speed
MPH
gust
MPH
rain 1hr
in
rain 24hr
in
rain mn
in
humidity
%
barometer
mb
20260504081501 72 40 2.0 0.0 0.00 0.00 0.03 95 1012.0
20260504044542 73 78 0.0 0.0 0.00 0.00 0.00 94 1013.9
20260504043041 73 80 0.0 0.0 0.00 0.00 0.00 94 1013.9
20260504041537 73 107 0.0 0.0 0.00 0.00 0.00 94 1014.0
20260504040058 73 84 0.0 0.0 0.00 0.00 0.00 94 1014.1
20260504034534 73 81 0.0 0.0 0.00 0.00 0.49 94 1014.3
20260504033035 73 109 0.0 0.0 0.00 0.00 0.49 94 1014.3
20260504031536 73 68 0.0 0.0 0.00 0.00 0.49 94 1014.3
20260504030032 73 103 1.0 0.0 0.00 0.00 0.49 94 1014.4
20260504024532 73 66 1.0 0.0 0.00 0.00 0.49 94 1014.5
20260504023032 73 90 1.0 0.0 0.00 0.00 0.49 93 1014.3
20260504021532 73 98 1.0 0.0 0.00 0.00 0.49 93 1014.3
20260504020030 73 132 1.0 0.0 0.00 0.00 0.49 93 1014.3
20260504014530 73 108 1.0 0.0 0.00 0.00 0.49 93 1014.2
20260504013029 73 113 2.0 0.0 0.00 0.00 0.49 93 1014.2
20260504011529 74 125 2.0 0.0 0.00 0.00 0.49 92 1014.2
20260504010029 74 97 2.0 0.0 0.00 0.00 0.49 92 1014.1
20260504004539 74 73 1.0 0.0 0.00 0.00 0.49 92 1014.0
20260504003027 74 99 1.0 0.0 0.00 0.00 0.49 94 1013.7
20260504001526 73 116 1.0 0.0 0.00 0.00 0.49 93 1013.7
20260504000026 73 106 2.0 0.0 0.00 0.00 0.49 92 1013.7
20260503234526 74 125 2.0 0.0 0.00 0.00 0.49 92 1013.4
20260503233025 75 118 3.0 0.0 0.00 0.00 0.46 90 1013.4
20260503231524 75 137 4.0 0.0 0.00 0.00 0.38 87 1013.1
20260503230028 76 111 3.0 0.0 0.00 0.00 0.38 86 1013.0
20260503224524 76 148 6.0 0.0 0.00 0.00 0.38 85 1013.0
20260503223023 77 150 3.0 0.0 0.00 0.00 0.38 84 1013.1
20260503221521 77 79 2.0 0.0 0.00 0.00 0.38 83 1013.0
20260503220022 78 81 3.0 0.0 0.00 0.00 0.38 81 1013.1
20260503214521 78 79 3.0 0.0 0.00 0.00 0.38 80 1013.1
20260503213021 78 117 3.0 0.0 0.00 0.00 0.38 82 1013.0
20260503211520 78 123 3.0 0.0 0.00 0.00 0.38 81 1013.2
20260503210020 78 99 3.0 0.0 0.00 0.00 0.38 82 1013.4
20260503204526 78 65 4.0 0.0 0.00 0.00 0.38 82 1013.3
20260503203019 78 72 5.0 0.0 0.00 0.00 0.38 82 1013.5
20260503201519 79 155 5.0 0.0 0.00 0.00 0.38 81 1013.5
20260503200020 79 101 3.0 0.0 0.00 0.00 0.38 80 1013.6
20260503194518 80 132 3.0 0.0 0.00 0.00 0.38 79 1013.6
20260503193034 80 131 4.0 0.0 0.00 0.00 0.38 80 1013.7
20260503191515 80 136 3.0 0.0 0.00 0.00 0.38 78 1013.9
20260503190018 79 113 3.0 0.0 0.00 0.00 0.38 78 1014.2
20260503184521 79 130 3.0 0.0 0.00 0.00 0.38 79 1014.2
20260503183014 79 101 5.0 0.0 0.00 0.00 0.38 80 1014.4
20260503181513 80 65 4.0 0.0 0.00 0.00 0.38 77 1014.7
20260503180018 79 86 3.0 0.0 0.00 0.00 0.38 77 1014.8
20260503174513 79 46 4.0 0.0 0.00 0.00 0.38 80 1015.0
20260503173021 80 21 3.0 0.0 0.00 0.00 0.38 78 1015.2
20260503171520 80 81 2.0 0.0 0.00 0.00 0.38 79 1015.2